Location: Stonelick Lake State Park
(39.2170°N, 84.0850°W)
Time: 01:23:39
(UTC-04:00)

Daily predictions for brighter satellites

Satellite Brightness Start Highest point End
(mag) Time Altitude Azimuth Time Altitude Azimuth Time Altitude Azimuth
Cosmos 1812 4.0 00:00:54 10° NNW 00:03:36 39° NW 00:03:36 39° NW
Meteor 1-13 Rocket 4.3 00:00:05 10° N 00:06:02 71° E 00:06:14 70° E
Cosmos 1000 Rocket 4.4 00:01:54 10° N 00:08:10 72° E 00:08:34 69° ESE
USA 234 3.4 00:01:44 10° NE 00:08:15 73° NW 00:14:44 10° WSW
Cosmos 2082 Rocket 2.7 00:03:10 10° NW 00:08:37 47° WSW 00:08:58 47° WSW
Meteor 2-4 Rocket 4.5 00:05:14 10° N 00:09:56 38° ENE 00:09:56 38° ENE
Cosmos 2239 Rocket 4.4 00:12:07 69° ESE 00:12:20 70° E 00:18:37 10° NNE
Meteor 1-11 Rocket 3.7 00:17:27 77° ENE 00:17:27 77° ENE 00:23:04 10° NNE
Cosmos 1302 Rocket 4.2 00:21:05 64° NNE 00:21:05 64° NNE 00:25:34 10° NNE
Gbstr 26 Del rocket 4.2 00:23:26 10° NW 00:27:04 39° N 00:27:04 39° N
ISS 0.2 00:43:52 10° NW 00:45:11 12° NNW 00:46:30 10° N
Cosmos 1821 Rocket 4.1 00:46:40 67° W 00:46:56 68° W 00:53:11 10° N
Cosmos 1605 Rocket 4.0 00:47:50 71° ENE 00:47:50 71° ENE 00:53:54 10° N
Terra 3.9 00:47:55 18° W 00:47:55 18° W 00:50:50 10° NW
Cosmos 2285 Rocket 3.9 00:51:55 82° NE 00:51:55 82° NE 00:58:02 10° NNE
Meteor 1-23 Rocket 4.4 00:47:10 10° N 00:51:57 67° N 00:51:57 67° N
Cosmos 2369 Rocket 2.6 00:57:32 59° NNE 00:57:32 59° NNE 01:02:04 10° NNE
MOS 1-B Rocket 4.5 00:58:33 50° ENE 00:58:42 50° ENE 01:05:05 10° N
Iridium 4 Rocket 4.3 00:55:16 10° NNW 01:00:45 53° WNW 01:00:45 53° WNW
Cosmos 1934 Rocket 4.1 01:01:47 61° WNW 01:01:47 61° WNW 01:07:42 10° N
Cosmos 2123 Rocket 4.0 00:58:48 10° N 01:04:44 73° WNW 01:04:44 73° WNW
ALOS 2 4.1 01:10:19 35° N 01:10:19 35° N 01:12:52 10° NNW
Lacrosse 5 2.8 01:09:48 46° N 01:09:48 46° N 01:13:50 10° NE
CZ-2C R/B 3.9 01:07:25 10° NNE 01:10:38 31° ENE 01:10:38 31° ENE
NOSS 3-1 (A) 3.9 01:11:38 10° NW 01:19:21 83° WSW 01:19:56 77° S
Cosmos 1943 Rocket 2.8 01:37:33 50° NE 01:37:33 50° NE 01:41:40 10° NNE
Cosmos 1818 4.3 01:38:10 49° NNE 01:38:10 49° NNE 01:42:08 10° NNE
ATLAS 2AS CENTAUR R/B 3.4 01:32:43 10° NNW 01:40:44 59° NE 01:42:50 46° ESE
Lacrosse 5 rocket 4.0 01:48:45 16° NNW 01:48:45 16° NNW 01:50:27 10° N
Cosmos 2100 Rocket 4.3 02:11:13 58° WNW 02:11:13 58° WNW 02:17:13 10° N
ISS 0.3 02:22:26 10° N 02:22:49 10° N 02:23:12 10° NNE
Cosmos 2061 Rocket 4.5 02:23:45 51° WNW 02:23:45 51° WNW 02:29:50 10° N
Cosmos 2233 Rocket 4.4 02:27:50 50° E 02:27:50 50° E 02:33:42 10° NNE
Meteor 1-21 4.4 02:23:14 10° N 02:28:11 66° NNE 02:28:11 66° NNE
Cosmos 2016 Rocket 4.2 02:31:20 59° WNW 02:31:20 59° WNW 02:36:57 10° N
Cosmos 2369 Rocket 4.4 02:39:18 13° WNW 02:41:11 15° NW 02:44:17 10° NNW
ATLAS CENTAUR R/B 4.1 02:43:06 16° E 02:43:06 16° E 02:45:11 10° ENE
SeaSat 1 2.9 02:44:11 58° N 02:44:11 58° N 02:48:18 10° NNW
CZ-2C R/B 4.3 02:45:58 30° NW 02:45:58 30° NW 02:48:49 10° NNW
Meteor 1-15 Rocket 4.5 02:45:49 63° E 02:45:49 63° E 02:51:27 10° NNE
Meteor 2-9 Rocket 4.3 02:47:36 72° ENE 02:47:36 72° ENE 02:53:09 10° NNE
Cosmos 2219 3.7 02:46:09 10° NNW 02:50:26 50° NW 02:50:26 50° NW
CZ-2C R/B 4.1 02:48:09 10° NNW 02:52:09 25° WNW 02:52:09 25° WNW
Lacrosse 5 4.5 02:49:47 10° WNW 02:52:49 16° NNW 02:55:53 10° NNE
Cosmos 2227 Rocket 3.5 02:50:43 10° N 02:55:56 36° ENE 02:58:37 24° ESE
Cosmos 1570 Rocket 4.3 02:58:55 66° NNW 02:58:55 66° NNW 03:03:40 10° NNE
Cosmos 1725 Rocket 4.4 03:06:36 47° WNW 03:06:36 47° WNW 03:12:31 10° N
NOSS 3-3 (A) 4.3 03:08:19 52° W 03:09:13 56° NW 03:15:50 10° NNE
NOSS 3-3 (C) 4.3 03:08:25 52° W 03:09:18 57° NW 03:15:55 10° NNE
Cosmos 2278 3.8 03:12:02 62° ESE 03:12:03 62° ESE 03:17:40 10° NNE
Cosmos 2369 4.0 03:13:13 56° ESE 03:13:19 56° ESE 03:18:51 10° NNE
Cosmos 2228 4.1 03:15:46 40° NNW 03:15:46 40° NNW 03:18:43 10° N
Geosat 4.5 03:11:17 10° NE 03:15:57 50° ESE 03:15:57 50° ESE
Cosmos 2297 Rocket 3.4 03:12:12 10° N 03:17:28 38° ENE 03:21:33 16° ESE
Cosmos 1943 Rocket 4.2 03:19:04 15° WNW 03:20:28 17° NW 03:23:57 10° NNW
Resurs 1-4 Rocket 4.1 03:16:50 10° NE 03:20:28 19° E 03:22:29 15° ESE
AQUA 4.1 03:16:54 10° NNE 03:21:22 59° E 03:21:22 59° E
NPP 3.5 03:18:48 10° NNE 03:24:13 79° ESE 03:24:27 77° SE
ADEOS 4.2 03:20:17 10° NNE 03:25:16 44° E 03:25:56 42° ESE
Cosmos 405 Rocket 3.9 03:23:04 10° N 03:26:39 41° ENE 03:26:39 41° ENE
ARIANE 5 R/B 4.0 03:24:03 10° NE 03:28:29 29° E 03:29:52 25° ESE
SL-16 R/B 3.9 03:25:32 10° SE 03:30:58 34° ENE 03:36:25 10° N
ATLAS 2AS CENTAUR R/B 3.9 03:24:30 10° NW 03:30:12 31° W 03:30:12 31° W
Milstar 3 Cent rocket 4.0 03:36:28 18° SE 03:36:28 18° SE 03:39:02 10° ESE
BREEZE-M DEB (TANK) 3.5 03:38:17 58° WSW 03:39:23 80° NW 03:42:37 10° NE
Spot 4 Rocket 4.4 03:39:10 10° NNE 03:44:16 58° E 03:45:14 50° SE
Cosmos 1812 Rocket 3.8 03:45:32 62° NW 03:45:32 62° NW 03:49:32 10° N
IRAS Rocket 4.2 03:40:04 10° NNE 03:45:43 87° WNW 03:46:41 63° SSW
SL-08 R/B 3.4 03:48:23 61° WNW 03:48:23 61° WNW 03:52:34 10° NNW
ERS-2 2.6 03:48:04 10° NNE 03:51:12 60° NNE 03:51:12 60° NNE
CBERS-1 4.0 03:48:40 10° N 03:53:45 65° WNW 03:54:16 61° WSW
Cosmos 1814 Rocket 4.0 03:53:05 62° S 03:53:58 81° ESE 03:59:21 10° NNE
IRS-1D 4.2 03:49:51 10° NNE 03:54:37 46° E 03:56:09 35° SE
Cosmos 2298 Rocket 3.9 03:49:31 10° NNW 03:54:50 80° WSW 03:55:45 61° S
BREEZE-M DEB (TANK) 4.1 03:50:20 10° NW 03:52:43 23° NW 03:52:43 23° NW
GPS 2-04 Rocket1 4.3 03:57:57 25° ESE 03:57:57 25° ESE 03:59:51 10° E
ISS -1.0 03:57:23 10° NNW 04:00:09 25° NNE 04:02:54 10° E
Cosmos 972 Rocket 4.5 03:56:01 10° NNW 04:00:12 42° W 04:00:12 42° W
Cosmos 1656 3.6 04:03:16 51° SSW 04:04:47 83° ESE 04:10:29 10° NNE
Cosmos 1707 2.9 04:03:48 10° NNW 04:07:17 62° NW 04:07:17 62° NW
Cosmos 1464 Rocket 4.2 04:08:20 43° SW 04:09:56 54° W 04:16:08 10° N
UNK 4.3 04:09:14 23° SE 04:12:02 58° ENE 04:16:38 10° N
CZ-2D R/B 2.4 04:12:30 10° NNE 04:17:56 64° E 04:20:34 30° S
Cosmos 858 Rocket 4.5 04:13:53 10° NNW 04:19:03 60° WSW 04:20:23 45° SSW
Okean 3 Rocket 3.5 04:15:55 10° NNW 04:20:16 59° W 04:20:36 57° WSW
Cosmos 468 Rocket 4.4 04:19:13 41° WSW 04:20:20 48° WNW 04:25:21 10° N
Cosmos 990 Rocket 4.0 04:15:19 10° NNW 04:20:36 79° ENE 04:24:59 15° SSE
ATLAS CENTAUR R/B 2.0 04:19:27 46° WSW 04:20:40 62° NW 04:25:40 10° NNE
NOSS 7 (E) 4.3 04:21:03 87° NNW 04:21:03 87° NNW 04:24:26 10° NNE
NOSS 2-1 (D) 4.2 04:24:03 34° WNW 04:24:43 37° NW 04:28:51 10° NNE
Meteor 2-12 Rocket 4.3 04:22:19 35° SSW 04:25:05 83° W 04:31:10 10° N
NOSS 2-1 (C) 4.2 04:25:23 34° WNW 04:26:06 37° NW 04:30:14 10° NNE
Cosmos 1697 Rocket 2.6 04:24:08 39° SSW 04:26:20 89° WNW 04:32:03 10° NNE
Cosmos 1092 Rocket 4.2 04:20:35 10° N 04:26:52 72° E 04:33:02 11° SSE
Cosmos 2082 4.1 04:23:40 10° NW 04:28:53 40° WSW 04:29:42 37° SW
Cosmos 2150 Rocket 4.4 04:28:11 10° NW 04:33:01 39° WSW 04:33:43 37° WSW
Cosmos 1980 Rocket 2.4 04:31:21 28° S 04:34:20 65° ESE 04:39:57 10° NNE
Cosmos 2227 Rocket 3.0 04:34:57 10° NW 04:39:50 30° WSW 04:40:20 30° WSW
GEOS 3 Rocket 3.5 04:37:16 10° SE 04:42:29 85° SW 04:47:42 10° NW
Cosmos 1898 Rocket 4.3 04:39:06 10° NW 04:43:47 31° W 04:44:33 30° WSW
Cosmos 2322 Rocket 3.7 04:40:54 10° SSE 04:45:42 30° ESE 04:50:31 10° NE
Cosmos 1125 Rocket 4.0 04:44:58 10° NNW 04:50:08 59° ENE 04:55:14 10° SSE
USA 161 3.8 04:52:45 14° NW 04:52:45 14° NW 04:53:24 10° NW
Cosmos 841 Rocket 3.6 04:49:56 30° SW 04:52:29 60° WNW 04:57:43 10° NNE
BREEZE-M R/B 4.4 04:47:28 10° WNW 04:53:10 47° SW 05:00:17 10° SSE
Cosmos 1076 Rocket 3.6 04:49:45 10° NNW 04:53:59 52° W 04:55:56 28° SSW
Cosmos 2142 Rocket 4.4 04:49:09 17° S 04:54:03 89° E 05:00:12 10° N
NOSS 3-4 (A) 3.8 04:47:43 10° NW 04:54:37 60° WSW 05:01:54 10° SSE
NOSS 3-4 (C) 3.8 04:47:49 10° NW 04:54:46 60° WSW 05:02:05 10° SSE
Cosmos 1937 Rocket 4.2 04:52:06 10° NW 04:56:42 33° W 04:58:31 26° SW
MTI 3.7 04:55:26 25° S 04:57:13 81° WSW 05:00:32 10° NNW
Cosmos 1470 4.3 04:55:04 10° SSE 04:58:39 34° E 05:02:16 10° NNE
Cosmos 1763 Rocket 4.0 04:56:53 26° SW 04:59:24 45° WNW 05:04:24 10° N
Cosmos 1743 Rocket 3.7 04:55:06 10° N 04:59:27 73° E 05:03:47 10° SSE
PSLV R/B 4.2 04:56:30 10° NNE 05:00:19 59° E 05:03:11 16° S
Resurs 1-4 Rocket 2.4 04:55:30 10° N 05:00:34 50° WNW 05:03:34 23° SW
CZ-4B R/B 4.2 04:57:15 10° NNE 05:00:53 35° E 05:04:20 10° SSE
Cosmos 2297 Rocket 3.1 04:56:34 10° NW 05:01:19 28° WSW 05:03:14 23° SW
Okean O Rocket 1.9 04:58:23 10° NNE 05:02:46 66° ESE 05:06:37 13° S
MOZ.5/SAFIR/RUBIN 5/SL-8 4.4 04:59:30 10° SSE 05:04:08 60° ENE 05:08:46 10° N
Cosmos 1437 2.9 05:01:28 10° N 05:04:49 75° E 05:08:08 10° SSE
Cosmos 1766 4.5 05:05:45 23° WSW 05:06:45 26° WNW 05:10:07 10° NNW
ARIANE 5 R/B 3.5 05:03:03 10° N 05:07:34 32° WNW 05:10:12 20° WSW
Cosmos 2279 Rocket 4.3 05:01:35 10° S 05:07:48 71° E 05:14:02 10° NNE
SL-16 R/B 3.1 05:10:04 16° SSW 05:14:29 37° W 05:20:08 10° NNW
Cosmos 2360 4.2 05:10:13 17° SSW 05:14:39 84° WNW 05:20:25 10° NNE
Cosmos 1378 4.3 05:11:46 10° NW 05:14:54 25° W 05:15:55 22° WSW
SL-16 R/B 2.8 05:12:42 10° S 05:18:11 54° ESE 05:23:42 10° NNE
Cosmos-2242 3.5 05:16:24 20° SW 05:18:57 41° WNW 05:23:02 10° N
Cosmos 2221 4.5 05:16:26 10° SSE 05:20:04 28° E 05:23:45 10° NNE
UNKNOWN OBJECT B 3.6 05:17:06 10° N 05:20:38 33° WNW 05:22:43 19° WSW
Cosmos 332 Rocket 3.8 05:17:17 14° SSW 05:21:29 88° ESE 05:26:20 10° NNE
Cosmos 1655 Rocket 4.0 05:19:44 10° N 05:26:09 76° W 05:32:30 10° S
Cosmos 1758 4.2 05:24:54 18° SW 05:27:15 33° WNW 05:30:55 10° NNW
Thor Agena Rocket 3.6 05:22:14 10° SSE 05:27:16 79° ENE 05:32:19 10° NNW
Cosmos 540 Rocket 3.5 05:24:51 13° SSW 05:29:30 73° WNW 05:34:41 10° NNE
Cosmos 1953 3.4 05:30:11 16° SW 05:32:34 28° WNW 05:36:07 10° NNW
PAYLOAD B 4.3 05:28:55 10° N 05:34:32 76° WNW 05:40:06 10° SSW
GPS 2-04 Rocket1 3.0 05:32:33 14° WSW 05:35:45 46° S 05:39:23 10° ESE
Cosmos 2263 Rocket 4.0 05:30:58 10° N 05:36:06 36° ENE 05:41:12 10° SE
ISS -2.9 05:33:35 10° WNW 05:36:40 39° SW 05:39:43 10° SSE
Cosmos 1805 4.5 05:36:32 14° SW 05:39:00 25° WNW 05:42:19 10° NNW
CZ-4B R/B 3.2 05:33:34 10° N 05:39:06 72° WNW 05:44:30 10° SSW
PSLV R/B 4.3 05:36:14 10° NNE 05:40:23 53° E 05:44:33 10° S
Cosmos 371 Rocket 3.3 05:36:54 10° SSW 05:41:44 88° WNW 05:46:34 10° NNE
Cosmos 1538 Rocket 4.5 05:37:25 10° S 05:42:36 65° ESE 05:47:53 10° NNE
Cosmos 1842 Rocket 4.0 05:40:22 10° SSW 05:44:40 46° W 05:49:00 10° N
Okean-O 3.1 05:41:41 10° NNE 05:46:06 64° E 05:50:29 10° S
Cosmos 1733 3.1 05:43:08 10° SSW 05:46:55 71° W 05:50:43 10° N
Cosmos 2058 3.9 05:47:02 10° N 05:51:11 53° E 05:55:17 10° SSE
DELTA 2 R/B (2) 2.8 05:49:40 10° W 05:51:52 82° S 05:53:36 10° E
SL-24 R/B - RUBIN 2 4.4 05:46:16 10° SW 05:51:55 71° NW 05:58:18 10° NNE
Cosmos 2026 Rocket 4.5 05:48:10 10° NNW 05:54:02 41° W 05:59:50 10° SSW
Cosmos 1805 Rocket 4.5 05:51:15 10° N 05:55:31 53° E 05:59:47 10° SSE
CZ-2D R/B 3.9 05:54:01 10° NNW 05:57:26 17° WNW 06:00:49 10° W
ATLAS CENTAUR R/B 4.1 05:59:08 10° WNW 06:00:46 11° NW 06:02:23 10° NNW
BREEZE-M DEB (TANK) 4.0 05:47:46 10° SW 06:02:20 70° SE 06:06:18 10° ENE
Aureole 1 Rocket 4.4 05:59:57 10° SW 06:05:34 52° WNW 06:12:52 10° NNE
